Flag for Germany Weather past 2 weeks in Mechernich, North Rhine-Westphalia, Germany

Now
61 °F

Scattered clouds.


Feels Like: 61 °F
Forecast: 43 / 64 °F
Wind: 3 mph from Southwest

Location: Noervenich

Current Time: Aug 20, 2014 at 1:31:05 PM

Latest Report: Aug 20, 2014 at 12:20 PM


Visibility: N/A

Pressure: 30.01 "Hg

Humidity: 55%

Dew point: 45 °F

Location of MechernichLocation

Historic Weather in Mechernich — Graph

°F

Mechernich temperature yesterday

Maximum temperature yesterday: 61 °F (at 9:20 AM)
Minimum temperature yesterday: 48 °F (at 11:20 PM)
Average temperature yesterday: 55 °F

Past Weeks' High & Low Weather Summary

 TemperatureHumidityPressure
High79 °F (Aug 8, 12:20 PM)100% (Aug 7, 12:20 AM)30.12 "Hg (Aug 7, 12:20 AM)
Low45 °F (Aug 20, 6:20 AM)41% (Aug 6, 12:20 PM)29.59 "Hg (Aug 10, 6:20 PM)
Average62 °F76%29.88 "Hg
* Reported Aug 5 12:20 PM — Aug 20 12:20 PM, Mechernich, Weather by CustomWeather, © 2014

Note: Actual official high and low records may vary slightly from our data, if they occured in-between our weather recording intervals... More about our weather records

Advertising

Mechernich weather history for previous 24 hours

 ConditionsComfort  
Time TempWeatherWind HumidityBarometerVisibility
12:20 PM
Aug 20
61 °FScattered clouds.3 mph55%30.01 "HgN/A
11:20 AM61 °FScattered clouds.5 mph59%30.04 "HgN/A
10:20 AM59 °FPassing clouds.3 mph68%30.04 "HgN/A
9:20 AM55 °FPassing clouds.2 mph72%30.04 "HgN/A
8:20 AM54 °FPassing clouds.No wind77%30.01 "HgN/A
7:20 AM45 °FPassing clouds.No wind93%30.01 "HgN/A
6:20 AM45 °FPassing clouds.1 mph93%30.01 "HgN/A
5:20 AM46 °FPassing clouds.1 mph87%30.01 "HgN/A
4:20 AM48 °FCool.2 mph82%29.98 "HgN/A
3:20 AM50 °FCool.6 mph82%29.98 "HgN/A
2:20 AM50 °FPassing clouds.6 mph82%29.98 "HgN/A
1:20 AM50 °FPassing clouds.6 mph82%29.98 "HgN/A
12:20 AM50 °FPassing clouds.2 mph88%29.98 "HgN/A
11:20 PM
Aug 19
48 °FPassing clouds.3 mph94%29.98 "HgN/A
10:20 PM52 °FPassing clouds.3 mph82%29.98 "HgN/A
9:20 PM52 °FPassing clouds.6 mph82%29.95 "HgN/A
8:20 PM54 °FPassing clouds.6 mph77%29.92 "HgN/A
7:20 PM55 °FBroken clouds.9 mph72%29.92 "HgN/A
6:20 PM57 °FSprinkles. Partly sunny.10 mph67%29.89 "Hg3 mi
5:20 PM59 °FBroken clouds.14 mph59%29.89 "HgN/A
4:20 PM61 °FBroken clouds.10 mph63%29.86 "HgN/A
3:20 PM59 °FBroken clouds.10 mph72%29.86 "HgN/A
2:20 PM57 °FBroken clouds.10 mph82%29.86 "HgN/A
1:20 PM54 °FSprinkles. Partly sunny.12 mph88%29.86 "HgN/A
Weather by CustomWeather, © 2014

See weather overviewHow to use our weather pages